AirNav   Phillips 66 Aviation Fuel
 
 1452 users online  

6F7 Manning Field Airport
Jefferson, Texas, USA

GOING TO JEFFERSON?


FAA INFORMATION EFFECTIVE 16 AUGUST 2018

Location

FAA Identifier: 6F7
Lat/Long: 32-49-37.2000N / 094-21-16.3000W
32-49.620000N / 094-21.271667W
32.8270000 / -94.3545278
(estimated)
Elevation: 320 ft. / 98 m (estimated)
Variation: 05E (1985)
From city: 4 miles N of JEFFERSON, TX
Time zone: UTC -5 (UTC -6 during Standard Time)
Zip code: 75657

Airport Operations

Airport use: Open to the public
Activation date: 08/1979
Control tower: no
ARTCC: FORT WORTH CENTER
FSS: FORT WORTH FLIGHT SERVICE STATION
NOTAMs facility: FTW (NOTAM-D service available)
Attendance: CONTINUOUS
Wind indicator: yes
Segmented circle: no

Airport Communications

CTAF: 122.9
WX AWOS-3 at ASL (19 nm S): 118.675 (903-938-2060)

Nearby radio navigation aids

VOR radial/distance  VOR name  Freq  Var
EICr270/27.7BELCHER VORTAC117.4007E
GGGr032/31.8GREGG COUNTY VORTAC112.3007E

 
NDB name  Hdg/Dist  Freq  Var  ID
ATLANTA202/18.634704EATA .- - .-
CARTHAGE352/38.933204ERPF .-. .--. ..-.

Airport Services

Parking: hangars and tiedowns
Bottled oxygen: NONE
Bulk oxygen: NONE

Runway Information

Runway 7/25

Dimensions: 3600 x 100 ft. / 1097 x 30 m
Surface: turf, in good condition
RWY HAS A MOWED WITH OF 30 FEET.
RUNWAY 7  RUNWAY 25
Latitude: 32-49.524848N32-49.714153N
Longitude: 094-21.605702W094-20.939098W
Elevation: 308.0 ft.233.0 ft.
Gradient: 2.1% UP
Traffic pattern: leftleft
Runway heading: 066 magnetic, 071 true246 magnetic, 251 true
Obstructions: 10 ft. road4 ft. fence

Airport Ownership and Management from official FAA records

Ownership: Privately-owned
Owner: ROGER MANNING
4702 N. US 59
JEFFERSON, TX 75657
Phone 903-665-3532
Manager: ROGER MANNING
4702 N. US 59
JEFFERSON, TX 75657
Phone 903-665-3532

Airport Operational Statistics

Aircraft based on the field: 7
Single engine airplanes: 5
Ultralights: 2
    
Aircraft operations: avg 25/week *
77% local general aviation
23% transient general aviation
* for 12-month period ending 09 June 2016

Additional Remarks

ULTRALIGHT ACTIVITY ON & INVOF ARPT.
RY 07/25 HAS A 30 FT RISE IN ELEVATION FM THLD OF RY 25 TO THLD OF RY 07.
NO LINE OF SIGHT BTN RY ENDS.
RWY 07 28 FT POWER POLE 88 FT FM THLD - 162 FT L

Instrument Procedures

There are no published instrument procedures at 6F7.

Some nearby airports with instrument procedures:

3F4 - Vivian Airport (17 nm E)
KATA - Hall-Miller Municipal Airport (18 nm NE)
KASL - Harrison County Airport (19 nm S)
KJXI - Fox Stephens Field - Gilmer Municipal Airport (31 nm W)
KGGG - East Texas Regional Airport (32 nm SW)
 
Loc | Ops | Rwys | IFR | FBO | Links
Com | Nav | Svcs | Stats | Notes


 
Area around 6F7 (Manning Field Airport)
 
Road maps at: MapQuest Bing Google
 
Aerial photo
WARNING: Photo may not be current or correct
Aerial photo of 6F7 (Manning Field Airport)
Photo by Carl Hennigan
Photo taken 09-Feb-2008

Do you have a better or more recent aerial photo of Manning Field Airport that you would like to share? If so, please send us your photo.

 
Sectional chart

 
Airport distance calculator
Flying to Manning Field Airport? Find the distance to fly.

From to 6F7

Sunrise and sunset
Times for 17-Aug-2018
 Local
(UTC-5)
 Zulu
(UTC)
Morning civil twilight06:1711:17
Sunrise06:4311:43
Sunset20:0001:00
Evening civil twilight20:2601:26

Current date and time
Zulu (UTC)  17-Aug-2018 17:11:04
Local (UTC-5)  17-Aug-2018 12:11:04
 
METAR
KASL 
19nm S 
171655Z AUTO 21006KT 160V220 10SM CLR 32/21 A3010 RMK AO1 T03220212
KJXI 
31nm W 
171655Z AUTO 24004KT 10SM SCT080 32/20 A3007 RMK AO2 T03240195
KGGG 
32nm SW 
171653Z 23007KT 10SM CLR 33/22 A3007 RMK AO2 SLP173 T03330222
KOSA 
35nm NW 
171650Z AUTO 21007KT 10SM CLR 32/19 A3007 RMK AO1 T03200194
KSHV 
35nm SE 
171656Z VRB03KT 10SM SCT032 33/23 A3007 RMK AO2 SLP177 T03330233
KDTN 
35nm SE 
171653Z 24007KT 10SM CLR 33/24 A3007 RMK AO2 SLP180 T03330239
TAF
KGGG 
32nm SW 
171121Z 1712/1812 22006KT P6SM SKC FM171800 23008KT P6SM SCT045 FM180000 21004KT P6SM BKN250
KSHV 
35nm SE 
171121Z 1712/1812 21004KT P6SM SKC FM171700 23007KT P6SM SCT040 FM180000 20004KT P6SM BKN120
KBAD 
40nm SE 
171000Z 1710/1816 20006KT 9999 FEW030 QNH2999INS BECMG 1815/1816 24010G15KT 9999 FEW050 QNH2994INS TX37/1721Z TN26/1712Z
NOTAMs
Click for the latest NOTAMs
NOTAMs are issued by the DoD/FAA and will open in a separate window not controlled by AirNav.

 

 
 

Would you like to see your business listed on this page?

 If your business provides an interesting product or service to pilots, flight crews, aircraft, or users of the Manning Field Airport, you should consider listing it here.  To start the listing process, click on the button below
 
Add a business
 

Other Pages about Manning Field Airport

Update a link
 
Copyright © AirNav, LLC. All rights reserved. Privacy Policy  Contact